Home   Weather   Shreveport   Past weeks

Flag for USA Past Weather in Shreveport, Louisiana, USA — Yesterday and Last 2 Weeks

Now
48 °F

Clear.


Feels Like: 42 °F
Forecast: 39 / 57 °F
Wind: 14 mph from North

Location: Shreveport Regional Airport

Current Time: Feb 25, 2017 at 3:21:30 am

Latest Report: Feb 25, 2017 at 2:56 am


Visibility: 10 mi

Pressure: 30.04 "Hg

Humidity: 52%

Dew Point: 31 °F

Location of ShreveportLocation

Past Weather in Shreveport — Graph

°F

Shreveport Temperature Yesterday

Maximum temperature yesterday: 79 °F (at 12:56 pm)
Minimum temperature yesterday: 54 °F (at 11:56 pm)
Average temperature yesterday: 66 °F

High & Low Weather Summary for the Past Weeks

 TemperatureHumidityPressure
High85 °F (Feb 11, 2:56 pm)100% (Feb 19, 3:56 am)30.31 "Hg (Feb 19, 3:56 am)
Low35 °F (Feb 16, 5:56 am)22% (Feb 16, 3:56 pm)29.59 "Hg (Feb 23, 5:56 pm)
Average62 °F73%29.94 "Hg
* Reported Feb 10 1:56 am — Feb 25 1:56 am, Shreveport, Weather by CustomWeather, © 2017

Note: Actual official high and low records may vary slightly from our data, if they occured in-between our weather recording intervals... More about our weather records

Advertising

Shreveport Weather History for the Previous 24 Hours

Scroll right to see more
 ConditionsComfort  
Time TempWeatherWind HumidityBarometerVisibility
1:56 am
Sat, Feb 25
50 °FClear.15 mph48%30.03 "Hg10 mi
12:56 am52 °FClear.14 mph47%30.01 "Hg10 mi
11:56 pm
Fri, Feb 24
54 °FClear.10 mph45%30.00 "Hg10 mi
10:56 pm56 °FClear.18 mph40%29.98 "Hg10 mi
9:56 pm58 °FClear.16 mph41%29.94 "Hg10 mi
8:56 pm59 °FClear.16 mph46%29.91 "Hg10 mi
7:56 pm61 °FClear.13 mph54%29.86 "Hg10 mi
6:56 pm63 °FClear.10 mph50%29.82 "Hg10 mi
5:56 pm68 °FPassing clouds.13 mph44%29.79 "Hg10 mi
4:56 pm71 °FPassing clouds.12 mph42%29.77 "Hg10 mi
3:56 pm74 °FPassing clouds.17 mph40%29.74 "Hg10 mi
2:56 pm75 °FPassing clouds.13 mph48%29.73 "Hg10 mi
1:56 pm77 °FPassing clouds.21 mph52%29.72 "Hg10 mi
12:56 pm79 °FPassing clouds.15 mph48%29.72 "Hg10 mi
11:56 am78 °FPassing clouds.15 mph54%29.72 "Hg10 mi
11:23 am75 °FPartly sunny.16 mph60%29.74 "Hg10 mi
11:03 am74 °FPartly sunny.13 mph62%29.73 "Hg10 mi
10:56 am75 °FScattered clouds.14 mph62%29.72 "Hg10 mi
9:56 am71 °FScattered clouds.16 mph68%29.71 "Hg10 mi
8:56 am67 °FPassing clouds.13 mph79%29.71 "Hg10 mi
7:56 am63 °FPassing clouds.10 mph87%29.68 "Hg10 mi
6:56 am60 °FSunny.14 mph93%29.66 "Hg10 mi
5:56 am61 °FClear.10 mph90%29.67 "Hg10 mi
5:17 am61 °FPassing clouds.8 mph93%29.69 "Hg10 mi
4:56 am62 °FMostly cloudy.8 mph90%29.67 "Hg10 mi
4:11 am61 °FPassing clouds.8 mph93%29.68 "Hg10 mi
3:56 am60 °FPassing clouds.6 mph93%29.64 "Hg10 mi
Weather by CustomWeather, © 2017

See weather overviewHow to use our weather pages